Flag for Canada Weather past 2 weeks in Richmond Hill, Ontario, Canada

Now
81 °F

Passing clouds.


Feels Like: 80 °F
Forecast: 67 / 81 °F
Wind: 15 mph from Southeast

Location: Toronto Buttonville

Current Time: Sep 4, 2015 at 3:33:03 PM

Latest Report: Sep 4, 2015 at 3:00 PM


Visibility: 15 mi

Pressure: 30.11 "Hg

Humidity: 39%

Dew point: 54 °F

Location of Richmond HillLocation

Historic Weather in Richmond Hill — Graph

°F

Richmond Hill temperature yesterday

Maximum temperature yesterday: 84 °F (at 3:00 PM)
Minimum temperature yesterday: 70 °F (at 11:00 PM)
Average temperature yesterday: 76 °F

Past Weeks' High & Low Weather Summary

 TemperatureHumidityPressure
High90 °F (Sep 2, 3:00 PM)100% (Aug 29, 6:00 AM)30.23 "Hg (Aug 29, 6:00 AM)
Low50 °F (Aug 28, 5:00 AM)36% (Aug 22, 3:00 PM)29.75 "Hg (Aug 24, 5:00 AM)
Average68 °F74%30.02 "Hg
* Reported Aug 20 2:00 PM — Sep 4 2:00 PM, Richmond Hill, Weather by CustomWeather, © 2015

Note: Actual official high and low records may vary slightly from our data, if they occured in-between our weather recording intervals... More about our weather records

Advertising

Richmond Hill weather history for previous 24 hours

 ConditionsComfort  
Time TempWeatherWind HumidityBarometerVisibility
2:00 PM
Fri, Sep 4
81 °FPassing clouds.15 mph39%30.11 "Hg15 mi
1:00 PM81 °FPassing clouds.17 mph42%30.12 "Hg15 mi
12:00 PM81 °FPassing clouds.15 mph45%30.12 "Hg15 mi
11:00 AM79 °FScattered clouds.13 mph58%30.11 "Hg15 mi
10:00 AM75 °FPartly sunny.13 mph61%30.11 "Hg15 mi
9:00 AM73 °FBroken clouds.6 mph69%30.10 "Hg15 mi
8:00 AM70 °FPartly sunny.7 mph78%30.09 "Hg15 mi
7:00 AM68 °FPassing clouds.3 mph83%30.07 "Hg15 mi
6:00 AM68 °FPassing clouds.3 mph83%30.05 "Hg12 mi
5:00 AM70 °FClear.5 mph83%30.04 "Hg12 mi
4:00 AM72 °FPassing clouds.6 mph83%30.03 "Hg10 mi
3:00 AM72 °FMostly cloudy.6 mph83%30.01 "Hg10 mi
2:00 AM72 °FMostly cloudy.3 mph83%30.01 "Hg10 mi
1:00 AM72 °FOvercast.2 mph78%30.00 "Hg12 mi
12:00 AM72 °FOvercast.2 mph78%29.98 "Hg12 mi
11:00 PM
Thu, Sep 3
70 °FPassing clouds.3 mph83%29.96 "Hg15 mi
10:00 PM73 °FPassing clouds.7 mph74%29.96 "Hg15 mi
9:00 PM72 °FOvercast.8 mph78%29.94 "Hg15 mi
8:00 PM72 °FOvercast.9 mph78%29.95 "Hg15 mi
7:00 PM79 °FScattered showers. Mostly cloudy.13 mph58%29.98 "Hg13 mi
6:53 PM79 °FScattered showers. Partly sunny.14 mph65%29.97 "Hg12 mi
6:00 PM82 °FBroken clouds.8 mph62%29.93 "Hg11 mi
5:00 PM82 °FPartly sunny.8 mph70%29.90 "Hg12 mi
4:00 PM84 °FScattered clouds.2 mph58%29.90 "Hg11 mi
3:00 PM84 °FScattered clouds.8 mph66%29.92 "Hg12 mi
Weather by CustomWeather, © 2015

See weather overviewHow to use our weather pages